Location: Newark
(43.0658°N, 122.2322°W)
Time: 09:17:31
(UTC+00:00)

STARLINK-1662 - Pass Details

Date: 21 September 2020
Orbit: 378 x 381 km, 53.0° (Epoch: 24 October)

Event Time Altitude Azimuth Distance (km) Brightness Sun altitude
Exits shadow 10:39:26 - 47° (NE) 1,764 7.1 -34.0°
Enters shadow 11:35:41 -67° 247° (WSW) 12,130 10.4 -25.5°
Sets 12:16:37 0° 54° (NE) 2,252 8.2 -18.6°
